This is the latest recevied weather packets stored in our database for station/object RV1CJ-14. If no packets are shown the sender has not sent any weather packets the latest 10 day(s).
| Time | Temp. | Humidity | Pressure | Rain* | Wind** | Luminosity | Snow |
|---|---|---|---|---|---|---|---|
| 1778003403 | 9.44° C | 68% | 1002 hPa | 0 mm | - | 0 W/m² | - |
| 1778002803 | 9.44° C | 66% | 1002 hPa | 0 mm | - | 5 W/m² | - |
| 1778002203 | 9.44° C | 67% | 1001.9 hPa | 0 mm | - | 5 W/m² | - |
| 1778001603 | 10° C | 66% | 1001.9 hPa | 0 mm | - | 7 W/m² | - |
| 1778001003 | 10° C | 64% | 1001.9 hPa | 0 mm | - | 11 W/m² | - |
| 1778000403 | 10.56° C | 62% | 1001.7 hPa | 0 mm | - | 12 W/m² | - |
| 1777999803 | 10.56° C | 60% | 1001.7 hPa | 0 mm | - | 16 W/m² | - |
| 1777999203 | 10.56° C | 57% | 1001.7 hPa | 0 mm | - | 26 W/m² | - |
| 1777998603 | 11.11° C | 56% | 1001.6 hPa | 0 mm | - | 16 W/m² | - |
| 1777998003 | 11.11° C | 51% | 1001.6 hPa | 0 mm | - | 16 W/m² | - |
| 1777997403 | 11.11° C | 54% | 1001.6 hPa | 0 mm | - | 18 W/m² | - |
| 1777996803 | 11.11° C | 55% | 1001.5 hPa | 0 mm | - | 19 W/m² | - |
| 1777996203 | 11.67° C | 58% | 1001.5 hPa | 0 mm | - | 19 W/m² | - |
| 1777995603 | 11.67° C | 57% | 1001.4 hPa | 0 mm | - | 21 W/m² | - |
| 1777995003 | 11.67° C | 59% | 1001.4 hPa | 0 mm | - | 21 W/m² | - |
| 1777994403 | 12.22° C | 60% | 1001.5 hPa | 0 mm | - | 23 W/m² | - |
| 1777993803 | 12.22° C | 60% | 1001.5 hPa | 0 mm | - | 25 W/m² | - |
| 1777993203 | 12.22° C | 59% | 1001.4 hPa | 0 mm | - | 25 W/m² | - |
| 1777992603 | 12.22° C | 57% | 1001.3 hPa | 0 mm | - | 35 W/m² | - |
| 1777992003 | 12.22° C | 57% | 1001.2 hPa | 0 mm | - | 37 W/m² | - |
| 1777991403 | 12.22° C | 57% | 1001.2 hPa | 0 mm | - | 28 W/m² | - |
| 1777990803 | 12.22° C | 57% | 1001.1 hPa | 0 mm | - | 32 W/m² | - |
| 1777989603 | 12.78° C | 58% | 1001.1 hPa | 0 mm | - | 42 W/m² | - |
| 1777989003 | 12.78° C | 62% | 1001 hPa | 0 mm | - | 58 W/m² | - |
| 1777988403 | 12.78° C | 65% | 1000.7 hPa | 0 mm | - | 33 W/m² | - |
* Rain latest hour (hover to see other rain measurements)
** Current wind speed in m/s (hover to see current wind gust speed)